Back to catalog

FENGYUN 1C DEB

AliveSSO
NORAD 31229·DEBRIS·🇨🇳 China

Launched May 10, 1999 from Taiyuan Satellite Launch Center

Loading…

Next Passes (next 24 hours)

TLE

FreshSource: Space-Track

Epoch: Sep 13, 2026, 10:49 UTC

1 31229U 99025BLK 26256.45123628  .00001776  00000-0  79231-3 0  9990
2 31229  98.8555 338.2902 0052257 225.9924 133.6941 14.23343634999906

Track FENGYUN 1C DEB in real time with AllMySat

Download on the App Store